Regional Weather Roundup
Issued by NWS

Home | Current Version | Previous Version | Text Only | Print | Product List | Glossary On
Versions: 1 2 3 4 5 6 7 8 9 10 11 12 13 14 15 16 17 18 19 20 21 22 23 24 25 26 27 28 29 30 31 32 33 34 35 36 37 38 39 40 41 42 43 44 45 46 47 48 49 50
000
ASUS43 KDTX 200601
RWRMI
MICHIGAN HOURLY REGIONAL WEATHER ROUNDUP
NATIONAL WEATHER SERVICE DETROIT/PONTIAC MI
100 AM EST MON FEB 20 2017

NOTE: "FAIR" INDICATES FEW OR NO CLOUDS BELOW 12,000 FEET WITH NO
SIGNIFICANT WEATHER AND/OR OBSTRUCTION TO VISIBILITY.

MIZ047>049-052>055-059>063-066>070-074>076-081>083-200700-
SOUTHEAST LOWER MICHIGAN

CITY           SKY/WX    TMP DP  RH WIND       PRES   REMARKS
ADRIAN         CLOUDY    35  30  82 E5        30.18R WCI  31
6HR MIN TEMP:  35; 6HR MAX TEMP:  55;

ALMA           CLOUDY    34  30  85 NE3       30.19R
ANN ARBOR      CLEAR     39  31  72 NE3       30.18R
BAD AXE        CLEAR     27  25  90 CALM      30.20R
6HR MIN TEMP:  27; 6HR MAX TEMP:  38;

CARO           CLOUDY    33  30  91 CALM      30.19R
DETROIT CITY   CLEAR     38  31  76 N3        30.19R
6HR MIN TEMP:  38; 6HR MAX TEMP:  56;

DETROIT        PTCLDY    41  31  67 N3        30.19R
6HR MIN TEMP:  41; 6HR MAX TEMP:  57;

FLINT          CLOUDY    36  29  75 SE3       30.20R
6HR MIN TEMP:  33; 6HR MAX TEMP:  51;

GROSSE ILE     CLEAR     38  32  78 CALM      30.18R
6HR MIN TEMP:  38; 6HR MAX TEMP:  56;

HILLSDALE      PTCLDY    37  28  70 CALM      30.16R
HOWELL         CLEAR     37  30  75 E6        30.17R WCI  33
6HR MIN TEMP:  33; 6HR MAX TEMP:  51;


CITY           SKY/WX    TMP DP  RH WIND       PRES   REMARKS
JACKSON        CLOUDY    37  29  72 CALM      30.16R
6HR MIN TEMP:  35; 6HR MAX TEMP:  55;

LAMBERTVILLE   CLEAR     43  35  75 E3        30.18R
6HR MIN TEMP:  40; 6HR MAX TEMP:  52;

LANSING        CLOUDY    35  27  72 CALM      30.17R
6HR MIN TEMP:  32; 6HR MAX TEMP:  53;

LAPEER         FAIR      31  29  92 SE5       30.19R WCI  27
6HR MIN TEMP:  31; 6HR MAX TEMP:  48;

MASON          CLOUDY    35  31  85 CALM      30.17R
MONROE         CLEAR     40  34  81 N3        30.17S
MT. CLEMENS    CLEAR     36  31  81 CALM      30.18R
6HR MIN TEMP:  34; 6HR MAX TEMP:  43;

PONTIAC        CLEAR     35  28  75 CALM      30.18R
6HR MIN TEMP:  35; 6HR MAX TEMP:  50;

PORT HOPE        N/A     30  28  92 CALM      30.18R
6HR MIN TEMP:  30; 6HR MAX TEMP:  36;

PORT HURON     CLOUDY    28  28 100 CALM      30.19S
TRI CITIES     PTCLDY    34  30  85 SE3       30.20R
6HR MIN TEMP:  33; 6HR MAX TEMP:  51;

MIDLAND        FAIR      32  27  83 CALM      30.19R
6HR MIN TEMP:  32; 6HR MAX TEMP:  42;

TROY           CLEAR     38  28  68 CALM      30.21R
SAGINAW HB     PTCLDY    34  28  80 CALM      30.19R
$$
MIZ043>046-050>051-056>058-064>065-071>073-077>080-200700-
SOUTHWEST LOWER MICHIGAN

CITY           SKY/WX    TMP DP  RH WIND       PRES   REMARKS
BATTLE CREEK   PTCLDY    37  30  75 CALM      30.16S
6HR MIN TEMP:  36; 6HR MAX TEMP:  54;

BENTON HARBOR  PTCLDY    36  29  75 CALM      30.15R
6HR MIN TEMP:  35; 6HR MAX TEMP:  48;

BIG RAPIDS     PTCLDY    32  27  83 CALM      30.17R
6HR MIN TEMP:  31; 6HR MAX TEMP:  49;

COLDWATER      CLOUDY    35  32  89 CALM      30.16R
6HR MIN TEMP:  34; 6HR MAX TEMP:  53;

FREMONT        FAIR      34  29  82 E5        30.16R WCI  30
HOLLAND        CLOUDY    36  31  82 CALM      30.16R
6HR MIN TEMP:  34; 6HR MAX TEMP:  44;

GRAND RAPIDS   CLOUDY    35  27  72 CALM      30.16R
6HR MIN TEMP:  35; 6HR MAX TEMP:  51;

IONIA          FAIR      35  28  76 NE3       30.16R
6HR MIN TEMP:  34; 6HR MAX TEMP:  52;

KALAMAZOO      PTCLDY    37  24  59 CALM      30.16R
6HR MIN TEMP:  37; 6HR MAX TEMP:  53;

LUDINGTON      CLOUDY    28  27  94 E3        30.15S
6HR MIN TEMP:  28; 6HR MAX TEMP:  41;

MARSHALL       CLOUDY    34  30  85 CALM      30.16R
6HR MIN TEMP:  33; 6HR MAX TEMP:  55;

MOUNT PLEASANT CLOUDY    34  29  80 CALM      30.19R
6HR MIN TEMP:  32; 6HR MAX TEMP:  45;

MUSKEGON       CLOUDY    34  28  79 CALM      30.16R
6HR MIN TEMP:  32; 6HR MAX TEMP:  43;

SOUTH HAVEN    CLOUDY    37  30  77 CALM      30.15R
$$
MIZ016>042-200700-
NORTHERN LOWER MICHIGAN

CITY           SKY/WX    TMP DP  RH WIND       PRES   REMARKS
ALPENA         CLEAR     27  26  96 CALM      30.20R
6HR MIN TEMP:  27; 6HR MAX TEMP:  40;

BEAVER ISLAND  CLOUDY    34  31  88 E7        30.20R WCI  28
6HR MIN TEMP:  28; 6HR MAX TEMP:  37;

BELLAIRE       PTCLDY    29  28  94 CALM      30.22R
6HR MIN TEMP:  27; 6HR MAX TEMP:  35;

CADILLAC       PTCLDY    31  28  88 CALM      30.17R
CHARLEVOIX     MOCLDY    31  28  92 CALM      30.23R
FRANKFORT      PTCLDY    40  31  69 E7        30.17S
GAYLORD        PTCLDY    28  23  81 CALM      30.18R
6HR MIN TEMP:  28; 6HR MAX TEMP:  41;

GRAYLING       PTCLDY    28  26  91 CALM      30.19R
HARBOR SPRINGS PTCLDY    29  28  95 CALM      30.21R
HOUGHTON LAKE  PTCLDY    28  26  92 CALM      30.19R
6HR MIN TEMP:  28; 6HR MAX TEMP:  40;

MANISTEE       CLOUDY    32  28  85 E6        30.16R WCI  26
OSCODA         CLOUDY    28  25  89 CALM      30.19R
6HR MIN TEMP:  26; 6HR MAX TEMP:  36;

PELLSTON       CLOUDY    26  22  84 CALM      30.21R
6HR MIN TEMP:  26; 6HR MAX TEMP:  37;

ROGERS CITY    CLEAR     32  28  86 CALM      30.21R
TRAVERSE CITY  CLOUDY    30  27  88 CALM      30.19R
6HR MIN TEMP:  30; 6HR MAX TEMP:  40;

$$
MIZ007>008-015-200700-
EASTERN UPPER MICHIGAN

CITY           SKY/WX    TMP DP  RH WIND       PRES   REMARKS
KINROSS        CLOUDY    28  27  96 NE7       30.20R WCI  21
6HR MIN TEMP:  27; 6HR MAX TEMP:  34;

MACKINAC ISLAN PTCLDY    32  28  85 NE5       30.20R WCI  28
6HR MIN TEMP:  32; 6HR MAX TEMP:  37;

NEWBERRY       PTCLDY    29  28  97 E5        30.19S WCI  24
6HR MIN TEMP:  27; 6HR MAX TEMP:  35;

S. S. MARIE    CLEAR     31  27  85 E3        30.20R
6HR MIN TEMP:  29; 6HR MAX TEMP:  36;

MUNISING         N/A     35  30  82 SW5       30.17S WCI  31
6HR MIN TEMP:  30; 6HR MAX TEMP:  35;

$$
MIZ004>006-011>014-085-200700-
CENTRAL UPPER MICHIGAN

CITY           SKY/WX    TMP DP  RH WIND       PRES   REMARKS
MANISTIQUE     PTCLDY    33  31  91 E5        30.19R WCI  29
6HR MIN TEMP:  28; 6HR MAX TEMP:  35;

ESCANABA       PTCLDY    28  26  92 CALM      30.17S
6HR MIN TEMP:  28; 6HR MAX TEMP:  36;

MENOMINEE      CLOUDY    29  28  96 CALM      30.17R
6HR MIN TEMP:  29; 6HR MAX TEMP:  38; 6HR PCP: TRACE;

SAWYER-GWINN   CLOUDY    33  28  81 S5        30.15R WCI  29
6HR MIN TEMP:  33; 6HR MAX TEMP:  35;

$$
MIZ001>003-009>011-084-200700-
WESTERN UPPER MICHIGAN

CITY           SKY/WX    TMP DP  RH WIND       PRES   REMARKS
IRON MOUNTAIN  PTCLDY    34  27  75 CALM      30.13R
6HR MIN TEMP:  31; 6HR MAX TEMP:  44;

HOUGHTON       PTCLDY    34  28  79 E9        30.10R WCI  27
6HR MIN TEMP:  33; 6HR MAX TEMP:  36;

COPPER HARBOR    N/A     36  31  82 VRB6      30.13R WCI  31
6HR MIN TEMP:  34; 6HR MAX TEMP:  36;

IRONWOOD       MOCLDY    47  31  53 SE9G20    30.01R
6HR MIN TEMP:  43; 6HR MAX TEMP:  49;

$$

ABBREVIATIONS USED IN REMARKS
   TC - TEMPERATURE IN CELSIUS
  WCI - WIND CHILL INDEX
   HX - HEAT INDEX
  VSB - VISIBILITY




USA.gov is the U.S. government's official web portal to all federal, state and local government web resources and services.